DW3426 Tranby NO current weather conditions

sailwx.info

Wind from 326 at 0 knots

Air temperature 20.6° C
Dewpoint 7.2° C

Last reported at 2018-May-22 19:06 UTC.
Time now 2018-May-22 19:53 UTC

Location: N 59°49' E 010°16'.
View on Google Maps.

See reports from other nearby stations

  
Tides and Currents Weather Stations Pressure Air Temp Water Temp Dewpoint Dewpoint Depression Visibility Wind Speed Wind Dir Waves Ship Positions
date/time (UTC)wind fromknots sea level pressurealtimeterstation pressurevisibilityair tempwater tempwave heightnotes
2018-May-22 19:06 326 0 20.6
2018-May-22 18:51 325 2 21.1
2018-May-22 18:36 332 2 21.7
2018-May-22 18:21 347 0 22.2
2018-May-22 18:06 331 0 22.8
2018-May-22 17:51 322 0 23.3
2018-May-22 17:36 332 1 23.9
2018-May-22 17:21 311 0 24.4
2018-May-22 17:06 308 0 24.4
2018-May-22 16:51 308 2 24.4
2018-May-22 16:36 318 2 25.0
2018-May-22 16:21 309 3 25.0
2018-May-22 16:06 019 2 25.0
2018-May-22 15:51 320 2 25.0
2018-May-22 15:36 312 1 25.0
2018-May-22 15:21 317 3 25.0
2018-May-22 15:06 338 0 25.0
2018-May-22 14:51 343 0 25.0
2018-May-22 14:36 022 1 25.0
2018-May-22 14:21 022 1 25.0
2018-May-22 14:06 330 1 25.0
2018-May-22 13:51 355 1 25.0
2018-May-22 13:36 005 0 24.4
2018-May-22 13:21 009 0 24.4
2018-May-22 13:06 028 0 24.4
2018-May-22 12:51 042 0 23.9
2018-May-22 12:36 026 0 23.9
2018-May-22 12:21 032 0 23.9
2018-May-22 12:06 037 0 23.3
2018-May-22 11:51 028 0 22.8
2018-May-22 11:36 024 0 22.2
2018-May-22 11:21 058 0 21.7
2018-May-22 11:06 058 0 21.1
2018-May-22 10:51 058 0 20.6
2018-May-22 10:35 032 19.4
2018-May-22 10:20 032 0 18.9
2018-May-22 10:05 030 0 18.3
2018-May-22 09:50 029 0 17.8
2018-May-22 09:35 009 0 17.2
2018-May-22 09:20 351 0 17.2
2018-May-22 09:05 351 16.7
2018-May-22 08:50 351 16.1
2018-May-22 08:35 355 0 15.6
2018-May-22 08:20 355 15.0
2018-May-22 08:05 321 13.9
2018-May-22 07:50 316 13.3
2018-May-22 07:35 316 12.8
2018-May-22 07:20 315 12.2
2018-May-22 07:05 312 11.7
2018-May-22 06:50 312 11.7
2018-May-22 06:35 311 11.1
2018-May-22 06:20 311 11.1
2018-May-22 06:05 310 11.1
2018-May-22 05:50 310 11.1
2018-May-22 05:35 310 0 10.6
2018-May-22 05:20 306 10.6
2018-May-22 05:05 305 0 10.0
2018-May-22 04:50 305 9.4
2018-May-22 04:35 305 9.4
2018-May-22 04:20 305 8.9
2018-May-22 04:05 305 8.9
2018-May-22 03:50 305 8.9
2018-May-22 03:35 305 8.9
2018-May-22 03:19 305 8.3
2018-May-22 03:04 305 8.3
2018-May-22 02:49 305 8.3
2018-May-22 02:34 305 8.3
2018-May-22 02:19 305 8.3
2018-May-22 02:04 305 8.3
2018-May-22 01:49 305 8.3
2018-May-22 01:34 305 8.9
2018-May-22 01:19 305 8.9
2018-May-22 01:04 305 8.9
2018-May-22 00:49 305 9.4
2018-May-22 00:34 305 9.4
2018-May-22 00:19 305 9.4
2018-May-22 00:04 305 10.0
2018-May-21 23:49 305 10.0
2018-May-21 23:34 305 10.6
2018-May-21 23:19 305 10.6
2018-May-21 23:04 305 10.6
2018-May-21 22:49 305 10.6
2018-May-21 22:34 305 10.6
2018-May-21 22:19 305 11.1
2018-May-21 22:04 305 11.7
2018-May-21 21:49 305 12.2
2018-May-21 21:34 305 12.2
2018-May-21 21:19 305 12.8
2018-May-21 21:04 305 0 12.8
2018-May-21 20:49 305 1 12.8
2018-May-21 20:34 311 1 13.3
2018-May-21 20:19 315 13.9
2018-May-21 20:04 315 0 14.4
2018-May-21 19:49 316 0 15.0
2018-May-21 19:34 318 0 15.0
2018-May-21 19:19 318 0 15.6
2018-May-21 19:04 307 0 16.1
2018-May-21 18:49 322 2 16.1
2018-May-21 18:34 300 3 16.7
2018-May-21 18:19 300 3 17.8
2018-May-21 18:04 320 1 18.3
2018-May-21 17:49 022 2 18.9
2018-May-21 17:34 345 2 19.4
2018-May-21 17:19 322 2 19.4
2018-May-21 17:04 338 1 20.0
2018-May-21 16:49 336 2 20.0
2018-May-21 16:34 320 3 20.0
2018-May-21 16:19 333 4 20.0
2018-May-21 16:04 301 4 20.6
2018-May-21 15:49 321 3 21.1
2018-May-21 15:33 318 3 20.6
2018-May-21 15:18 327 3 20.6
2018-May-21 15:03 348 4 21.1
2018-May-21 14:48 308 4 21.7
2018-May-21 14:33 319 5 21.7
2018-May-21 14:18 312 4 22.2
2018-May-21 14:03 307 5 21.7
2018-May-21 13:48 290 6 21.7
2018-May-21 13:33 304 6 22.2
2018-May-21 13:18 300 3 22.8
2018-May-21 13:03 254 4 22.8
2018-May-21 12:48 338 3 22.8
2018-May-21 12:33 327 3 22.2
2018-May-21 12:18 284 5 22.2
2018-May-21 12:03 315 4 22.2
2018-May-21 11:48 038 4 22.2
2018-May-21 11:33 309 2 22.2
2018-May-21 11:18 299 4 21.7
2018-May-21 11:03 309 4 21.1
2018-May-21 10:48 346 4 20.6
2018-May-21 10:33 325 3 20.6
2018-May-21 10:18 323 2 20.0
2018-May-21 10:03 324 1 19.4
2018-May-21 09:48 345 2 19.4
2018-May-21 09:33 016 2 18.9
2018-May-21 09:18 317 1 18.3
2018-May-21 09:03 014 0 17.8
2018-May-21 08:48 333 2 17.8
2018-May-21 08:33 319 1 17.2
2018-May-21 08:18 332 0 16.7
2018-May-21 08:03 032 0 16.7
2018-May-21 07:48 044 16.1
2018-May-21 07:33 019 15.6
2018-May-21 07:17 019 15.6
2018-May-21 07:02 019 15.0
2018-May-21 06:47 027 14.4
2018-May-21 06:32 332 13.9
2018-May-21 06:17 330 13.3
2018-May-21 06:02 330 13.3
2018-May-21 05:47 330 0 12.8
2018-May-21 05:32 331 0 12.2
2018-May-21 05:17 330 0 11.7
2018-May-21 05:02 330 0 11.1
2018-May-21 04:47 330 11.1
2018-May-21 04:32 330 10.6
2018-May-21 04:17 330 10.6
2018-May-21 04:02 330 0 10.6
2018-May-21 03:47 331 0 10.0
2018-May-21 03:32 333 0 10.0
2018-May-21 03:17 333 10.0
2018-May-21 03:02 333 10.0
2018-May-21 02:47 333 10.0
2018-May-21 02:32 333 10.6
2018-May-21 02:17 333 10.6
2018-May-21 02:02 333 11.1
2018-May-21 01:47 333 11.1
2018-May-21 01:32 333 0 11.1
2018-May-21 01:17 333 11.1
2018-May-21 01:02 333 11.7
2018-May-21 00:47 333 11.7
2018-May-21 00:32 333 11.7
2018-May-21 00:17 333 11.7
2018-May-21 00:02 333 11.7
2018-May-20 23:47 333 11.7
2018-May-20 23:32 333 11.7
2018-May-20 23:17 333 12.2
2018-May-20 23:02 333 12.2
2018-May-20 22:47 333 12.8
2018-May-20 22:32 333 12.8
2018-May-20 22:17 333 0 12.8
2018-May-20 21:46 335 2 13.3
2018-May-20 21:01 307 1 13.9
2018-May-20 20:16 315 3 15.0
2018-May-20 20:01 308 3 15.0
2018-May-20 19:16 323 3 16.7
2018-May-20 19:01 331 3 17.8